Location: Unspecified
(43.4680°N, 87.1740°E)
Time: 21:34:05
(UTC+00:00)

Cosmos 2344 - Pass Details

Date: 17 April 2021
Orbit: 1240 x 3002 km, 63.3° (Epoch: 12 May)

Event Time Altitude Azimuth Distance (km) Brightness Sun altitude
Rises 14:13:54 0° 204° (SSW) 4,378 6.3 -13.7°
Reaches altitude 10° 14:16:49 10° 202° (SSW) 3,305 5.7 -14.2°
Maximum altitude 14:24:18 68° 121° (ESE) 1,328 3.4 -15.3°
Drops below altitude 10° 14:31:55 10° 41° (NE) 3,363 5.7 -16.5°
Sets 14:34:54 0° 39° (NE) 4,460 6.4 -17.0°
